Location: Cabeza de los Veneras
(40.2000°N, 5.2000°W)
Time: 11:25:02
(UTC+00:00)

USA 281 - Visible Passes

Search period start: 14 May 2025 00:00
Search period end: 24 May 2025 00:00
Orbit: 1078 x 1081 km, 106.0° (Epoch: 28 April)

Date Brightness Start Highest point End Pass type
(mag) Time Alt. Az. Time Alt. Az. Time Alt. Az.
14 May 4.2 01:23:19 10° NE 01:29:08 33° ESE 01:30:17 31° SE visible
14 May 3.7 03:07:31 10° NNE 03:13:43 46° WNW 03:17:10 25° WSW visible
15 May 5.3 00:36:27 10° ENE 00:38:57 12° E 00:39:39 12° ESE visible
15 May 3.2 02:17:40 10° NNE 02:24:16 80° ESE 02:26:32 44° SSW visible
15 May 4.7 04:03:21 10° N 04:08:03 21° NW 04:12:45 10° W visible
16 May 4.2 01:28:36 10° NE 01:34:27 33° ESE 01:35:54 30° SE visible
16 May 3.7 03:12:49 10° NNE 03:19:00 46° WNW 03:22:46 23° WSW visible
17 May 5.3 00:41:41 10° ENE 00:44:15 12° E 00:45:15 12° ESE visible
17 May 3.2 02:22:58 10° NNE 02:29:33 81° ESE 02:32:08 40° SSW visible
17 May 4.7 04:08:39 10° N 04:13:20 21° NW 04:18:01 10° W visible
18 May 4.2 01:33:52 10° NE 01:39:45 34° ESE 01:41:30 29° SE visible
18 May 3.7 03:18:07 10° N 03:24:18 45° WNW 03:28:22 21° WSW visible
19 May 5.3 00:46:55 10° ENE 00:49:33 13° E 00:50:52 12° ESE visible
19 May 3.2 02:28:15 10° NNE 02:34:51 81° ESE 02:37:44 37° SSW visible
19 May 4.7 04:13:58 10° N 04:18:37 21° NW 04:23:17 10° W visible
20 May 4.2 01:39:09 10° NE 01:45:03 34° ESE 01:47:06 28° SE visible
20 May 3.8 03:23:24 10° N 03:29:35 45° WNW 03:33:59 19° WSW visible
21 May 5.3 00:52:09 10° ENE 00:54:51 13° E 00:56:28 12° ESE visible
21 May 3.2 02:33:33 10° NNE 02:40:09 82° ESE 02:43:20 34° SSW visible
21 May 4.7 04:19:16 10° N 04:23:54 21° NW 04:28:33 10° W visible
22 May 4.3 01:44:27 10° NE 01:50:20 34° ESE 01:52:41 27° SE visible
22 May 3.8 03:28:43 10° N 03:34:52 45° WNW 03:39:35 17° WSW visible
23 May 5.3 00:57:24 10° ENE 01:00:09 13° E 01:02:04 11° ESE visible
23 May 3.2 02:38:50 10° NNE 02:45:27 82° ESE 02:48:56 30° SSW visible
23 May 4.7 04:24:35 10° N 04:29:12 21° NW 04:33:50 10° W visible
